Total_Precipitation_Accumulation
0.00 0.00 0.00 0.01 0.20 0.34 0.14 0.49 0.46 0.07 0.01 0.00 0.01 0.00 0.01 0.01 0.01 0.03 0.00 0.00 0.00 0.00 0.07 0.22 0.34 0.30 0.12 0.02 0.10 0.19 0.04 0.08 0.02 0.05 0.04 0.03 0.09 0.14 0.10 0.12 0.21 0.21 0.11 0.06 0.04 0.07 0.05 0.04 0.04
0.00 0.00 0.01 0.08 0.42 0.81 0.14 0.20 0.37 0.08 0.00 0.00 0.00 0.01 0.03 0.01 0.00 0.00 0.00 0.01 0.00 0.00 0.01 0.05 0.19 0.14 0.05 0.02 0.11 0.13 0.05 0.05 0.05 0.04 0.06 0.05 0.09 0.21 0.24 0.21 0.22 0.16 0.17 0.15 0.12 0.09 0.06 0.07 0.02
0.00 0.00 0.09 0.34 1.23 1.02 0.58 0.36 0.32 0.02 0.00 0.00 0.01 0.02 0.00 0.00 0.00 0.00 0.00 0.01 0.01 0.02 0.02 0.02 0.01 0.02 0.04 0.06 0.04 0.04 0.07 0.04 0.05 0.10 0.14 0.16 0.16 0.20 0.23 0.18 0.18 0.15 0.18 0.21 0.21 0.17 0.12 0.21 0.03
0.00 0.02 0.21 1.15 2.29 0.36 0.39 0.20 0.06 0.04 0.00 0.00 0.00 0.02 0.00 0.00 0.00 0.00 0.00 0.01 0.03 0.04 0.02 0.00 0.01 0.05 0.19 0.15 0.06 0.09 0.06 0.08 0.09 0.13 0.23 0.27 0.34 0.25 0.16 0.15 0.17 0.09 0.05 0.08 0.11 0.14 0.07 0.08 0.02
0.00 0.37 1.87 1.50 0.78 0.51 0.59 0.17 0.01 0.01 0.00 0.01 0.02 0.04 0.01 0.00 0.00 0.00 0.00 0.02 0.02 0.01 0.00 0.01 0.19 0.18 0.16 0.21 0.27 0.13 0.08 0.12 0.12 0.18 0.34 0.35 0.22 0.22 0.26 0.19 0.06 0.04 0.06 0.04 0.06 0.07 0.08 0.09 0.07
0.12 1.12 2.02 0.54 0.25 0.82 0.70 0.11 0.01 0.01 0.01 0.01 0.00 0.00 0.01 0.01 0.00 0.01 0.00 0.01 0.00 0.00 0.00 0.02 0.17 0.14 0.13 0.19 0.28 0.14 0.22 0.18 0.35 0.26 0.29 0.38 0.32 0.18 0.10 0.09 0.02 0.04 0.11 0.08 0.02 0.05 0.05 0.06 0.04
0.18 2.06 1.33 0.24 0.29 0.79 0.49 0.08 0.05 0.01 0.01 0.02 0.01 0.00 0.03 0.01 0.00 0.00 0.00 0.03 0.02 0.00 0.00 0.01 0.04 0.10 0.10 0.20 0.26 0.20 0.13 0.12 0.28 0.24 0.25 0.30 0.24 0.20 0.15 0.11 0.02 0.03 0.05 0.04 0.06 0.04 0.09 0.16 0.08
0.21 1.18 1.58 0.31 0.99 1.08 0.39 0.09 0.04 0.03 0.03 0.03 0.02 0.00 0.01 0.01 0.01 0.04 0.05 0.04 0.03 0.01 0.01 0.02 0.01 0.04 0.05 0.08 0.15 0.10 0.04 0.06 0.15 0.22 0.18 0.34 0.39 0.14 0.07 0.06 0.01 0.01 0.00 0.01 0.03 0.04 0.06 0.07 0.04
0.36 1.14 1.24 0.90 1.03 0.70 0.19 0.04 0.11 0.04 0.01 0.07 0.02 0.00 0.00 0.00 0.00 0.01 0.03 0.04 0.02 0.03 0.09 0.04 0.01 0.06 0.06 0.02 0.06 0.04 0.02 0.17 0.23 0.21 0.29 0.41 0.31 0.09 0.05 0.05 0.03 0.03 0.01 0.01 0.04 0.05 0.02 0.05 0.03
0.92 1.16 1.59 0.71 0.46 0.11 0.02 0.03 0.10 0.04 0.03 0.02 0.01 0.00 0.00 0.00 0.00 0.00 0.01 0.01 0.01 0.02 0.04 0.10 0.00 0.00 0.01 0.01 0.04 0.09 0.08 0.06 0.08 0.12 0.06 0.07 0.04 0.03 0.06 0.09 0.07 0.02 0.12 0.17 0.08 0.10 0.25 0.10 0.01
0.82 1.44 0.54 0.56 0.21 0.09 0.07 0.11 0.05 0.05 0.10 0.01 0.00 0.00 0.00 0.00 0.00 0.00 0.00 0.00 0.01 0.02 0.04 0.00 0.00 0.02 0.00 0.01 0.02 0.04 0.02 0.00 0.01 0.01 0.01 0.01 0.00 0.04 0.12 0.16 0.06 0.03 0.12 0.32 0.13 0.04 0.07 0.06 0.08
0.61 0.83 0.57 0.46 0.29 0.16 0.08 0.03 0.05 0.09 0.18 0.02 0.00 0.00 0.00 0.00 0.00 0.00 0.00 0.00 0.00 0.02 0.01 0.00 0.01 0.09 0.03 0.01 0.00 0.00 0.00 0.00 0.00 0.00 0.00 0.01 0.00 0.01 0.02 0.12 0.20 0.08 0.10 0.36 0.19 0.08 0.04 0.03 0.01
0.35 0.67 0.78 0.64 0.46 0.37 0.18 0.15 0.08 0.29 0.83 0.02 0.01 0.00 0.00 0.00 0.00 0.00 0.00 0.00 0.00 0.01 0.00 0.00 0.00 0.02 0.03 0.01 0.00 0.00 0.00 0.00 0.00 0.00 0.00 0.00 0.03 0.06 0.07 0.16 0.11 0.15 0.15 0.16 0.14 0.18 0.03 0.05 0.00
0.27 0.63 0.68 0.70 0.67 0.50 0.32 0.35 0.24 0.23 0.34 0.04 0.01 0.00 0.00 0.00 0.00 0.00 0.00 0.00 0.00 0.01 0.00 0.00 0.00 0.00 0.00 0.00 0.00 0.00 0.00 0.00 0.00 0.00 0.00 0.00 0.02 0.05 0.14 0.09 0.11 0.23 0.06 0.06 0.13 0.21 0.01 0.00 0.00
0.29 0.65 0.65 0.39 0.66 0.41 0.51 0.79 0.54 0.24 0.07 0.02 0.01 0.00 0.00 0.00 0.00 0.00 0.00 0.00 0.00 0.00 0.00 0.00 0.00 0.00 0.00 0.00 0.00 0.00 0.00 0.00 0.00 0.03 0.04 0.03 0.02 0.03 0.18 0.13 0.25 0.12 0.11 0.12 0.16 0.07 0.00 0.00 0.00
0.48 0.65 0.65 0.46 0.85 0.68 1.11 2.13 1.09 0.44 0.05 0.04 0.00 0.00 0.00 0.00 0.00 0.00 0.00 0.00 0.00 0.00 0.00 0.00 0.00 0.00 0.00 0.00 0.01 0.01 0.11 0.06 0.00 0.02 0.04 0.01 0.04 0.05 0.06 0.04 0.05 0.05 0.14 0.06 0.11 0.03 0.00 0.00 0.00
0.45 0.71 0.69 0.88 0.88 1.77 2.10 2.83 1.86 0.43 0.13 0.05 0.01 0.00 0.00 0.00 0.00 0.00 0.00 0.00 0.00 0.00 0.00 0.00 0.00 0.00 0.00 0.00 0.00 0.01 0.02 0.02 0.00 0.00 0.04 0.04 0.04 0.03 0.04 0.02 0.02 0.08 0.09 0.02 0.01 0.01 0.01 0.00 0.00
0.26 0.48 0.62 0.75 1.02 1.92 1.55 0.81 0.72 0.18 0.19 0.10 0.03 0.00 0.00 0.00 0.00 0.00 0.00 0.00 0.00 0.00 0.00 0.00 0.00 0.00 0.00 0.00 0.01 0.02 0.02 0.03 0.00 0.01 0.02 0.02 0.06 0.08 0.14 0.05 0.04 0.11 0.01 0.00 0.04 0.00 0.01 0.00 0.00
0.04 0.36 0.64 0.78 1.22 1.48 1.14 0.76 0.68 0.19 0.36 0.33 0.07 0.01 0.00 0.00 0.00 0.00 0.00 0.00 0.00 0.00 0.00 0.00 0.00 0.01 0.00 0.00 0.01 0.01 0.02 0.02 0.00 0.02 0.03 0.07 0.10 0.11 0.11 0.09 0.05 0.03 0.03 0.02 0.02 0.01 0.00 0.00 0.00
0.01 0.12 0.52 1.04 0.96 1.54 2.96 1.80 1.19 0.55 0.41 0.35 0.08 0.01 0.01 0.00 0.00 0.00 0.00 0.00 0.00 0.00 0.00 0.00 0.02 0.05 0.02 0.01 0.02 0.01 0.01 0.01 0.01 0.05 0.05 0.04 0.05 0.10 0.09 0.11 0.05 0.04 0.06 0.05 0.02 0.02 0.00 0.00 0.00
0.00 0.08 0.38 0.69 0.60 0.99 1.67 2.49 1.51 0.57 0.74 0.56 0.21 0.06 0.00 0.00 0.00 0.00 0.00 0.00 0.00 0.00 0.00 0.00 0.02 0.05 0.03 0.01 0.02 0.04 0.09 0.06 0.10 0.15 0.14 0.12 0.06 0.05 0.15 0.09 0.05 0.07 0.03 0.03 0.03 0.03 0.00 0.00 0.00
0.00 0.03 0.25 0.23 0.08 0.08 0.16 0.57 0.60 0.51 0.65 0.86 0.30 0.16 0.04 0.00 0.00 0.00 0.00 0.00 0.00 0.00 0.00 0.00 0.01 0.05 0.04 0.04 0.05 0.19 0.12 0.09 0.08 0.14 0.19 0.21 0.13 0.05 0.08 0.07 0.10 0.08 0.04 0.07 0.02 0.02 0.00 0.00 0.00
0.01 0.01 0.14 0.12 0.04 0.02 0.01 0.11 0.22 0.47 0.55 0.47 0.50 0.69 0.18 0.02 0.01 0.00 0.00 0.00 0.00 0.00 0.00 0.00 0.00 0.01 0.00 0.06 0.25 0.13 0.10 0.12 0.13 0.12 0.19 0.26 0.26 0.19 0.10 0.14 0.11 0.12 0.08 0.04 0.02 0.03 0.04 0.01 0.01
0.01 0.01 0.00 0.02 0.05 0.04 0.00 0.03 0.20 0.48 0.44 0.49 0.26 0.75 1.04 0.49 0.10 0.05 0.02 0.01 0.00 0.00 0.00 0.00 0.00 0.00 0.00 0.03 0.08 0.11 0.14 0.15 0.18 0.18 0.21 0.17 0.20 0.17 0.12 0.12 0.13 0.13 0.09 0.07 0.02 0.07 0.05 0.02 0.01
0.00 0.00 0.02 0.05 0.02 0.00 0.00 0.00 0.07 0.47 0.49 0.39 0.34 0.48 0.89 1.05 0.39 0.15 0.12 0.06 0.03 0.01 0.00 0.00 0.00 0.00 0.00 0.00 0.03 0.07 0.11 0.14 0.28 0.15 0.09 0.31 0.35 0.11 0.08 0.15 0.15 0.09 0.08 0.05 0.03 0.05 0.06 0.03 0.03
0.00 0.00 0.02 0.04 0.01 0.00 0.01 0.01 0.01 0.02 0.05 0.06 0.17 0.14 0.20 0.24 0.60 0.22 0.21 0.16 0.12 0.07 0.02 0.00 0.00 0.00 0.00 0.00 0.04 0.11 0.12 0.08 0.15 0.08 0.18 0.16 0.15 0.10 0.21 0.14 0.12 0.10 0.09 0.03 0.03 0.02 0.01 0.01 0.00
0.00 0.00 0.00 0.00 0.02 0.02 0.06 0.02 0.03 0.01 0.04 0.04 0.03 0.09 0.12 0.11 0.10 0.15 0.26 0.25 0.19 0.05 0.01 0.00 0.00 0.00 0.00 0.00 0.01 0.03 0.04 0.04 0.08 0.23 0.26 0.14 0.13 0.14 0.23 0.22 0.19 0.19 0.11 0.07 0.08 0.02 0.04 0.02 0.01
0.00 0.00 0.00 0.00 0.00 0.01 0.12 0.14 0.12 0.08 0.07 0.04 0.02 0.02 0.05 0.12 0.34 0.28 0.31 0.37 0.33 0.17 0.05 0.01 0.02 0.01 0.02 0.01 0.01 0.02 0.05 0.04 0.05 0.12 0.11 0.39 0.34 0.27 0.38 0.46 0.15 0.11 0.12 0.12 0.06 0.05 0.04 0.07 0.02
0.00 0.00 0.00 0.00 0.00 0.00 0.10 0.30 0.19 0.15 0.04 0.05 0.08 0.08 0.12 0.12 0.32 1.10 1.15 1.07 0.82 0.62 0.22 0.28 0.33 0.27 0.09 0.01 0.01 0.10 0.06 0.07 0.05 0.09 0.09 0.13 0.24 0.34 0.29 0.57 0.28 0.21 0.13 0.13 0.14 0.10 0.07 0.11 0.04
0.00 0.00 0.00 0.00 0.00 0.00 0.02 0.23 0.23 0.25 0.14 0.12 0.15 0.09 0.12 0.19 0.21 0.43 1.00 1.84 2.02 1.88 1.65 0.83 1.02 0.84 0.47 0.27 0.10 0.16 0.14 0.09 0.04 0.11 0.06 0.09 0.16 0.27 0.26 0.22 0.28 0.25 0.16 0.15 0.17 0.09 0.08 0.19 0.13